Date String (YYYY-MM-DD hh:mm:ss) UTC,Instrument flags,Ambient pressure (hPa),Sample flow (lpm),Bypass flow (lpm),Sample temperature (°C),Ambient temperature (°C),ASC tube jacket temperature (°C),LED temperature (°C),Box temperature (°C),Sample RH (%),Span deviation,Mass concentration (μg/m³),Mass concentration (μg/m³),Mass concentration (μg/m³)
DateTimeUTC,F1_M11,P_M11,Q1_M11,Q2_M11,T1_M11,T2_M11,T3_M11,T4_M11,T5_M11,U1_M11,ZSPAN_M11,X0_M11,X2_M11,X1_M11
2022-04-29 02:00:00,,0815.3,4.99,0.00,29.1,28.3,00.0,38.0,31.0,10.4,0002.2,0025.46,0008.64,0005.53
2022-04-29 02:01:00,,0815.3,5.02,0.00,29.1,28.3,00.0,38.0,31.0,10.4,0002.2,0025.52,0008.60,0005.51
2022-04-29 02:02:00,,0815.3,5.01,0.00,29.2,28.4,00.0,38.0,31.0,10.3,0002.3,0025.80,0008.62,0005.52
2022-04-29 02:03:00,,0815.3,4.99,0.00,29.2,28.4,00.0,38.1,31.0,10.1,0002.7,0025.78,0008.65,0005.51
2022-04-29 02:04:00,,0815.3,5.01,0.00,29.2,28.4,00.0,38.1,31.1,10.0,0002.5,0024.02,0008.64,0005.53
2022-04-29 02:05:00,,0815.3,5.01,0.00,29.2,28.5,00.0,38.1,31.1,10.0,0002.2,0024.43,0008.64,0005.52
2022-04-29 02:06:00,,0815.4,4.99,0.00,29.2,28.5,00.0,38.1,31.1,10.0,0002.3,0024.70,0008.58,0005.50
2022-04-29 02:07:00,,0815.3,5.00,0.00,29.3,28.5,00.0,38.1,31.1,10.1,0001.9,0024.88,0008.47,0005.47
2022-04-29 02:08:00,,0815.3,4.99,0.00,29.3,28.4,00.0,38.1,31.1,10.0,0001.6,0025.95,0008.39,0005.43
2022-04-29 02:09:00,,0815.3,5.00,0.00,29.2,26.5,00.0,38.1,30.6,10.0,0002.2,0026.06,0008.37,0005.40
2022-04-29 02:10:00,,0815.3,5.00,0.00,29.1,25.5,00.0,38.1,30.5,10.0,0002.2,0025.86,0008.32,0005.37
2022-04-29 02:11:00,,0815.3,5.01,0.00,29.0,25.8,00.0,38.1,30.5,10.0,0002.0,0025.16,0008.34,0005.36
2022-04-29 02:12:00,,0815.3,5.00,0.00,29.0,26.2,00.0,38.0,30.6,10.1,0001.7,0024.31,0008.37,0005.35
2022-04-29 02:13:00,,0815.3,4.99,0.00,29.0,26.6,00.0,38.0,30.7,10.1,0001.2,0024.92,0008.30,0005.33
2022-04-29 02:14:00,,0815.3,5.01,0.00,29.0,26.9,00.0,38.0,30.7,10.1,0000.8,0023.65,0008.25,0005.31
2022-04-29 02:15:00,,0815.2,5.00,0.00,29.0,27.2,00.0,38.0,30.8,10.2,0000.6,0023.87,0008.23,0005.26
2022-04-29 02:16:00,,0815.2,4.99,0.00,29.0,27.4,00.0,38.0,30.8,10.2,0001.0,0022.90,0008.19,0005.24
2022-04-29 02:17:00,,0815.3,5.01,0.00,29.0,27.6,00.0,38.0,30.8,10.2,0001.4,0022.66,0008.14,0005.21
2022-04-29 02:18:00,,0815.3,4.99,0.00,29.0,27.8,00.0,38.0,30.8,10.2,0001.2,0022.77,0008.22,0005.21
2022-04-29 02:19:00,,0815.3,4.99,0.00,29.0,27.9,00.0,38.0,30.9,10.1,0001.5,0021.30,0008.16,0005.20
2022-04-29 02:20:00,,0815.3,5.01,0.00,29.1,28.0,00.0,38.0,30.9,10.1,0001.9,0020.69,0008.10,0005.18
2022-04-29 02:21:00,,0815.3,4.99,0.00,29.1,28.1,00.0,38.0,30.9,10.1,0001.7,0021.02,0008.04,0005.19
2022-04-29 02:22:00,,0815.3,5.01,0.00,29.1,28.1,00.0,38.0,31.0,10.0,0001.4,0021.11,0007.98,0005.17
2022-04-29 02:23:00,,0815.2,5.00,0.00,29.1,28.2,00.0,38.0,31.0,10.0,0001.1,0021.13,0007.96,0005.18
2022-04-29 02:24:00,,0815.4,4.98,0.00,29.1,28.3,00.0,38.0,31.0,10.0,0001.5,0019.64,0007.94,0005.16
2022-04-29 02:25:00,,0815.2,5.00,0.00,29.2,28.3,00.0,38.0,31.0,10.0,0001.9,0019.09,0007.85,0005.14
2022-04-29 02:26:00,,0815.3,5.00,0.00,29.2,28.3,00.0,38.1,31.0,09.9,0002.1,0018.63,0007.76,0005.14
2022-04-29 02:27:00,,0815.3,4.98,0.00,29.2,28.4,00.0,38.1,31.1,09.9,0001.8,0018.46,0007.73,0005.14
2022-04-29 02:28:00,,0815.3,5.02,0.00,29.2,28.4,00.0,38.1,31.1,09.8,0002.0,0018.19,0007.72,0005.15
2022-04-29 02:29:00,,0815.3,4.99,0.00,29.2,28.4,00.0,38.1,31.1,10.0,0002.2,0017.37,0007.67,0005.15
2022-04-29 02:30:00,,0815.3,5.00,0.00,29.3,28.5,00.0,38.1,31.1,10.2,0002.4,0017.91,0007.67,0005.14
2022-04-29 02:31:00,,0815.3,5.01,0.00,29.3,28.5,00.0,38.1,31.2,10.2,0002.3,0018.57,0007.69,0005.17
2022-04-29 02:32:00,,0815.3,4.98,0.00,29.3,28.6,00.0,38.1,31.2,10.3,0002.4,0018.39,0007.75,0005.19
2022-04-29 02:33:00,,0815.4,5.01,0.00,29.3,28.6,00.0,38.2,31.2,10.3,0002.8,0018.99,0007.83,0005.22
2022-04-29 02:34:00,,0815.4,5.00,0.00,29.3,28.0,00.0,38.2,31.1,10.4,0003.0,0020.01,0007.94,0005.25
2022-04-29 02:35:00,,0815.4,4.99,0.00,29.2,25.5,00.0,38.2,30.5,10.6,0003.0,0020.17,0007.99,0005.29
2022-04-29 02:36:00,,0815.4,5.00,0.00,29.0,24.5,00.0,38.1,30.2,10.7,0003.1,0020.68,0008.14,0005.31
2022-04-29 02:37:00,,0815.3,5.01,0.00,29.0,24.9,00.0,38.0,30.3,10.7,0002.8,0021.05,0008.20,0005.33
2022-04-29 02:38:00,,0815.3,5.00,0.00,28.9,25.4,00.0,38.0,30.4,10.8,0003.0,0021.25,0008.27,0005.39
2022-04-29 02:39:00,,0815.3,4.99,0.00,28.9,25.9,00.0,38.0,30.5,10.9,0003.1,0021.56,0008.30,0005.42
2022-04-29 02:40:00,,0815.3,4.99,0.00,28.9,26.4,00.0,37.9,30.6,10.9,0003.1,0021.47,0008.30,0005.45
2022-04-29 02:41:00,,0815.2,5.01,0.00,28.9,26.8,00.0,37.9,30.7,10.9,0003.2,0021.57,0008.34,0005.48
2022-04-29 02:42:00,,0815.2,4.99,0.00,28.9,27.1,00.0,37.9,30.7,10.8,0003.4,0021.77,0008.43,0005.49
2022-04-29 02:43:00,,0815.2,5.00,0.00,28.9,27.3,00.0,37.9,30.8,10.7,0003.9,0021.56,0008.48,0005.51
2022-04-29 02:44:00,,0815.2,5.01,0.00,29.0,27.5,00.0,37.9,30.8,10.6,0004.3,0020.91,0008.49,0005.52
2022-04-29 02:45:00,,0815.2,4.98,0.00,29.0,27.7,00.0,37.9,30.8,10.5,0004.3,0020.07,0008.48,0005.51
2022-04-29 02:46:00,,0815.1,5.01,0.00,29.0,27.8,00.0,37.9,30.9,10.3,0004.3,0020.47,0008.49,0005.51
2022-04-29 02:47:00,,0815.2,5.00,0.00,29.0,27.9,00.0,37.9,30.9,10.3,0003.7,0020.71,0008.47,0005.52
2022-04-29 02:48:00,,0815.3,4.99,0.00,29.1,28.0,00.0,37.9,30.9,10.2,0003.6,0020.14,0008.48,0005.53
2022-04-29 02:49:00,,0815.3,5.01,0.00,29.1,28.1,00.0,37.9,31.0,10.2,0003.2,0020.65,0008.44,0005.51
2022-04-29 02:50:00,,0815.2,5.01,0.00,29.1,28.2,00.0,38.0,31.0,10.0,0003.1,0020.28,0008.45,0005.50
2022-04-29 02:51:00,,0815.1,4.98,0.00,29.1,28.3,00.0,38.0,31.0,10.0,0003.1,0021.02,0008.52,0005.51
2022-04-29 02:52:00,,0815.4,5.02,0.00,29.2,28.3,00.0,38.0,31.0,10.0,0003.0,0020.64,0008.57,0005.52
2022-04-29 02:53:00,,0815.3,4.98,0.00,29.2,28.3,00.0,38.0,31.0,10.0,0002.2,0020.20,0008.50,0005.53
2022-04-29 02:54:00,,0815.2,5.00,0.00,29.2,28.4,00.0,38.0,31.0,10.0,0000.5,0021.92,0008.46,0005.53
2022-04-29 02:55:00,,0815.3,4.99,0.00,29.2,28.4,00.0,38.0,31.1,10.0,-000.1,0022.74,0008.49,0005.53
2022-04-29 02:56:00,,0815.2,5.00,0.00,29.2,28.4,00.0,38.0,31.1,09.9,-000.4,0022.79,0008.38,0005.52
2022-04-29 02:57:00,,0815.1,5.01,0.00,29.2,28.4,00.0,38.1,31.0,10.0,0000.2,0023.13,0008.35,0005.53
2022-04-29 02:58:00,,0815.1,4.99,0.00,29.2,28.4,00.0,38.1,31.1,10.0,0001.3,0022.71,0008.31,0005.52
2022-04-29 02:59:00,,0815.1,5.01,0.00,29.2,28.4,00.0,38.1,31.1,10.0,0001.5,0023.22,0008.35,0005.52
